Regional Weather Roundup
Issued by NWS

Home | Current Version | Previous Version | Text Only | Print | Product List | Glossary Off
Versions: 1 2 3 4 5 6 7 8 9 10 11 12 13 14 15 16 17 18 19 20 21 22 23 24 25 26 27 28 29 30 31 32 33 34 35 36 37 38 39 40 41 42 43 44 45 46 47 48 49 50

000
ASUS43 KIND 060109
RWRIN

WEATHER ROUNDUP FOR INDIANA
NATIONAL WEATHER SERVICE INDIANAPOLIS IN
900 PM EDT SUN JUL 05 2015

NOTE: "FAIR" INDICATES FEW OR NO CLOUDS BELOW 12,000 FEET WITH NO
SIGNIFICANT WEATHER AND/OR OBSTRUCTIONS TO VISIBILITY.

* - STATION DOES NOT REPORT WEATHER SUCH AS PRECIPITATION OR FOG.

+ - STATION NOT QUALITY CONTROLLED BY THE NATIONAL WEATHER SERVICE.
    USE DATA WITH CAUTION...ESPECIALLY DEWPOINT AND RELATIVE
    HUMIDITY OBSERVATIONS.

INZ001>003-010>013-019-020-060200-
NORTHWEST INDIANA

CITY           SKY/WX    TMP DP  RH WIND       PRES   REMARKS
GARY /AIRPORT/ PTCLDY   N/A N/A N/A S5        30.04S
KNOX *+        CLEAR     73  61  64 S5        30.03F
LA PORTE +     CLEAR     75  67  74 CALM      30.05S
MICHIGAN CITY+ CLEAR     73  61  64 CALM      30.05S
MONTICELLO +   CLEAR     76  64  64 CALM      30.03F
RENSSELAER +   CLEAR     75  68  78 CALM      30.04S
VALPARAISO     CLEAR     77  62  59 S3        30.05S

$$

LMZ046-743>745-060200-
SOUTHERN LAKE MICHIGAN

STATION/POSITION TIME  TEMP    WIND        PRES    WAVE
                       AIR SEA DIR/SP/G            HT
                 (UTC) (F)     (DEG/KT/KT) (MB)    (FT)
BURNS HARBOR     0100   71      70/  4/  8 1017.6S
MICHIGAN CITY    0100   71      40/  7/  7   N/A
5NW MICH CITY    0100   69 68   80/  4/  6   N/A     1

$$

INZ004-005-014>016-021>024-060200-
NORTH CENTRAL INDIANA

CITY           SKY/WX    TMP DP  RH WIND       PRES   REMARKS
GOSHEN         PTCLDY    77  63  61 SE5       30.05F
LOGANSPORT +   PTCLDY    75  61  60 CALM      30.06S
PERU/GRISSOM   MOCLDY    76  64  65 SE6       30.04F
ROCHESTER +    PTCLDY    79  64  61 CALM      30.05F
SOUTH BEND     CLEAR     77  61  57 S6        30.05S
WARSAW +         N/A     73  63  68 CALM      30.06S

$$

INZ006>009-017-018-025>027-060200-
NORTHEAST INDIANA

CITY           SKY/WX    TMP DP  RH WIND       PRES   REMARKS
ANGOLA *+        N/A     77  64  65 SE5       30.08S
AUBURN +       MOCLDY    72  61  68 CALM      30.08S
FORT WAYNE     MOCLDY    73  63  70 CALM      30.07S
HUNTINGTON +   MOCLDY    71  64  79 CALM      30.06F

$$

INZ028-029-035-036-043>045-051>053-060200-
WEST CENTRAL INDIANA

CITY           SKY/WX    TMP DP  RH WIND       PRES   REMARKS
CRAWFORDSVL +    N/A     72  68  88 CALM      30.05
GREENCASTLE +  PTCLDY    73  63  68 SE5       30.06S
LAFAYETTE      CLEAR     74  66  76 CALM      30.03F
TERRE HAUTE    MOCLDY    77  69  76 SE3       30.03F

$$

INZ030>032-037>040-046>048-054>057-064-065-060200-
CENTRAL INDIANA

CITY           SKY/WX    TMP DP  RH WIND       PRES   REMARKS
CP ATTERBURY + PTCLDY    72  64  78 CALM      30.07S
FISHERS *+     MOCLDY    70  64  83 CALM      30.07S
FRANKFORT +    PTCLDY    76  65  68 E5        30.07S
GREENWOOD *+   MOCLDY    73  61  64 CALM      30.07S
INDIANAPOLIS   MOCLDY    75  59  57 SE5       30.05S
-EAGLE CREEK   MOCLDY    76  58  53 S3        30.05S
KOKOMO *+      MOCLDY    75  64  69 S6        30.05S
MARION +       MOCLDY    73  65  77 CALM      30.07F
MT COMFORT *+  MOCLDY    70 N/A N/A CALM      30.07S
SHELBYVILLE    PTCLDY    74  68  81 CALM      30.06S
ZIONSVILLE +   MOCLDY    75  62  62 SE3       30.07S

$$

INZ033-034-041-042-049-050-058-059-060200-
EAST CENTRAL INDIANA

CITY           SKY/WX    TMP DP  RH WIND       PRES   REMARKS
MUNCIE         PTCLDY    74  61  63 CALM      30.07S

$$

INZ060-061-067>069-081>083-085>088-060200-
SOUTHWEST INDIANA

CITY           SKY/WX    TMP DP  RH WIND       PRES   REMARKS
EVANSVILLE     CLEAR     80  68  66 CALM      30.03R HAZE
HUNTINGBURG *+ PTCLDY    75  70  83 CALM      30.04S
WASHINGTON +   PTCLDY    76  69  77 SE3       30.03S

$$

INZ062-063-066-070>080-084-089>092-060200-
SOUTH CENTRAL AND SOUTHEAST INDIANA

CITY           SKY/WX    TMP DP  RH WIND       PRES   REMARKS
BLOOMINGTON    MOCLDY    76  68  76 SE5       30.06R
MADISON *+     PTCLDY    70  64  83 CALM      30.08S
NORTH VERNON + PTCLDY    72  66  83 CALM      30.07F
SEYMOUR +      PTCLDY    73  66  78 CALM      30.06R

$$




USA.gov is the U.S. government's official web portal to all federal, state and local government web resources and services.